TimeEST,TemperatureF,Dew PointF,Humidity,Sea Level PressureIn,VisibilityMPH,Wind Direction,Wind SpeedMPH,Gust SpeedMPH,PrecipitationIn,Events,Conditions,WindDirDegrees,DateUTC
12:15 AM,46.6,46.2,99,30.44,4.0,Calm,Calm,-,N/A,,Clear,0,2013-01-10 05:15:00
12:35 AM,46.0,45.5,98,30.43,7.0,Calm,Calm,-,N/A,,Clear,0,2013-01-10 05:35:00
12:55 AM,46.6,45.9,97,30.44,7.0,Calm,Calm,-,N/A,,Clear,0,2013-01-10 05:55:00
1:15 AM,45.7,45.3,99,30.44,7.0,Calm,Calm,-,N/A,,Clear,0,2013-01-10 06:15:00
1:35 AM,45.5,45.0,98,30.44,4.0,Calm,Calm,-,N/A,,Clear,0,2013-01-10 06:35:00
1:55 AM,45.3,44.8,98,30.45,3.0,Calm,Calm,-,N/A,,Clear,0,2013-01-10 06:55:00
3:15 AM,45.1,45.1,100,30.45,4.0,Calm,Calm,-,N/A,,Clear,0,2013-01-10 08:15:00
3:35 AM,43.3,43.2,99,30.45,3.0,Calm,Calm,-,N/A,,Clear,0,2013-01-10 08:35:00
3:55 AM,44.4,44.4,100,30.45,3.0,Calm,Calm,-,N/A,,Clear,0,2013-01-10 08:55:00
4:15 AM,43.9,43.9,100,30.44,4.0,Calm,Calm,-,N/A,,Clear,0,2013-01-10 09:15:00
4:35 AM,43.7,43.7,100,30.44,5.0,Calm,Calm,-,N/A,,Clear,0,2013-01-10 09:35:00
4:55 AM,43.9,43.7,99,30.44,7.0,Calm,Calm,-,N/A,,Clear,0,2013-01-10 09:55:00
5:15 AM,43.7,43.7,100,30.43,5.0,Calm,Calm,-,N/A,,Clear,0,2013-01-10 10:15:00
5:35 AM,42.6,42.3,99,30.44,7.0,Calm,Calm,-,N/A,,Clear,0,2013-01-10 10:35:00
5:55 AM,41.7,41.7,100,30.46,4.0,Calm,Calm,-,N/A,,Clear,0,2013-01-10 10:55:00
6:35 AM,41.9,41.9,100,30.47,7.0,Calm,Calm,-,N/A,,Clear,0,2013-01-10 11:35:00
6:55 AM,43.0,41.5,95,30.49,10.0,Calm,Calm,-,N/A,,Clear,0,2013-01-10 11:55:00
7:15 AM,42.3,41.0,95,30.50,10.0,Calm,Calm,-,N/A,,Clear,0,2013-01-10 12:15:00
7:35 AM,41.9,41.0,97,30.50,10.0,Calm,Calm,-,N/A,,Clear,0,2013-01-10 12:35:00
7:55 AM,45.0,40.8,85,30.51,10.0,Calm,Calm,-,N/A,,Clear,0,2013-01-10 12:55:00
8:15 AM,45.3,40.5,83,30.52,10.0,Calm,Calm,-,N/A,,Clear,0,2013-01-10 13:15:00
8:35 AM,44.4,41.7,90,30.52,10.0,Calm,Calm,-,N/A,,Clear,0,2013-01-10 13:35:00
8:55 AM,47.3,40.3,77,30.53,10.0,Calm,Calm,-,N/A,,Clear,0,2013-01-10 13:55:00
9:15 AM,48.2,40.5,75,30.53,10.0,Calm,Calm,-,N/A,,Clear,0,2013-01-10 14:15:00
9:35 AM,50.0,38.3,64,30.54,10.0,Calm,Calm,-,N/A,,Clear,0,2013-01-10 14:35:00
10:15 AM,52.9,34.9,50,30.54,10.0,ENE,5.8,-,N/A,,Clear,60,2013-01-10 15:15:00
10:35 AM,55.2,35.1,47,30.54,10.0,Calm,Calm,-,N/A,,Clear,0,2013-01-10 15:35:00
10:55 AM,57.0,33.8,42,30.53,10.0,Calm,Calm,-,N/A,,Clear,0,2013-01-10 15:55:00
11:15 AM,59.4,32.5,36,30.53,10.0,East,3.5,-,N/A,,Clear,90,2013-01-10 16:15:00
11:35 AM,60.1,31.8,34,30.51,10.0,East,5.8,-,N/A,,Clear,100,2013-01-10 16:35:00
11:55 AM,59.0,31.5,35,30.50,10.0,Calm,Calm,-,N/A,,Clear,0,2013-01-10 16:55:00
12:15 PM,58.8,31.5,36,30.50,10.0,ENE,4.6,-,N/A,,Clear,60,2013-01-10 17:15:00
12:35 PM,58.6,30.7,35,30.49,10.0,NNE,5.8,-,N/A,,Clear,30,2013-01-10 17:35:00
12:55 PM,60.1,31.3,34,30.48,10.0,Calm,Calm,-,N/A,,Clear,0,2013-01-10 17:55:00
1:15 PM,59.0,30.7,34,30.47,10.0,NE,3.5,-,N/A,,Clear,50,2013-01-10 18:15:00
1:35 PM,59.0,30.0,33,30.46,10.0,NNE,3.5,-,N/A,,Clear,30,2013-01-10 18:35:00
1:55 PM,59.4,30.2,33,30.46,10.0,NNE,4.6,-,N/A,,Clear,30,2013-01-10 18:55:00
2:15 PM,59.0,30.0,33,30.46,10.0,NNE,3.5,-,N/A,,Clear,30,2013-01-10 19:15:00
2:35 PM,59.0,30.4,34,30.46,10.0,NE,4.6,-,N/A,,Clear,40,2013-01-10 19:35:00
2:55 PM,59.5,30.2,33,30.46,10.0,NNE,4.6,-,N/A,,Clear,30,2013-01-10 19:55:00
3:15 PM,59.7,30.6,33,30.46,10.0,Calm,Calm,-,N/A,,Clear,0,2013-01-10 20:15:00
3:35 PM,59.0,30.6,34,30.46,10.0,Calm,Calm,-,N/A,,Clear,0,2013-01-10 20:35:00
3:55 PM,58.5,31.1,35,30.46,10.0,Calm,Calm,-,N/A,,Clear,0,2013-01-10 20:55:00
4:15 PM,57.6,32.2,38,30.45,10.0,Calm,Calm,-,N/A,,Clear,0,2013-01-10 21:15:00
4:35 PM,56.5,33.6,42,30.45,10.0,Calm,Calm,-,N/A,,Clear,0,2013-01-10 21:35:00
4:55 PM,54.1,35.1,49,30.46,10.0,Calm,Calm,-,N/A,,Clear,0,2013-01-10 21:55:00
5:15 PM,50.5,35.8,57,30.46,10.0,Calm,Calm,-,N/A,,Clear,0,2013-01-10 22:15:00
5:35 PM,48.4,35.6,61,30.47,10.0,Calm,Calm,-,N/A,,Clear,0,2013-01-10 22:35:00
5:55 PM,47.5,35.6,63,30.47,10.0,Calm,Calm,-,N/A,,Clear,0,2013-01-10 22:55:00
6:15 PM,45.0,35.8,70,30.47,10.0,Calm,Calm,-,N/A,,Clear,0,2013-01-10 23:15:00
6:35 PM,45.7,36.1,69,30.47,10.0,Calm,Calm,-,N/A,,Clear,0,2013-01-10 23:35:00
6:55 PM,43.9,36.0,74,30.47,10.0,Calm,Calm,-,N/A,,Clear,0,2013-01-10 23:55:00
7:15 PM,42.8,36.1,77,30.46,10.0,Calm,Calm,-,N/A,,Clear,0,2013-01-11 00:15:00
7:35 PM,42.4,36.0,78,30.46,10.0,Calm,Calm,-,N/A,,Clear,0,2013-01-11 00:35:00
7:55 PM,41.7,35.8,79,30.46,10.0,Calm,Calm,-,N/A,,Clear,0,2013-01-11 00:55:00
8:15 PM,41.2,36.0,82,30.46,10.0,Calm,Calm,-,N/A,,Clear,0,2013-01-11 01:15:00
8:35 PM,40.5,35.8,83,30.46,10.0,Calm,Calm,-,N/A,,Clear,0,2013-01-11 01:35:00
8:55 PM,40.8,36.3,84,30.46,10.0,Calm,Calm,-,N/A,,Clear,0,2013-01-11 01:55:00
9:15 PM,41.5,37.2,85,30.46,10.0,Calm,Calm,-,N/A,,Clear,0,2013-01-11 02:15:00
9:35 PM,40.6,36.7,86,30.46,10.0,Calm,Calm,-,N/A,,Clear,0,2013-01-11 02:35:00
9:55 PM,39.7,37.2,91,30.45,10.0,Calm,Calm,-,N/A,,Clear,0,2013-01-11 02:55:00
10:15 PM,40.6,37.0,87,30.45,10.0,Calm,Calm,-,N/A,,Clear,0,2013-01-11 03:15:00
10:35 PM,39.0,36.3,90,30.45,10.0,Calm,Calm,-,N/A,,Clear,0,2013-01-11 03:35:00
10:55 PM,39.6,37.0,91,30.45,10.0,Calm,Calm,-,N/A,,Clear,0,2013-01-11 03:55:00
11:15 PM,38.5,36.9,94,30.44,10.0,Calm,Calm,-,N/A,,Clear,0,2013-01-11 04:15:00
11:35 PM,38.5,36.7,93,30.43,10.0,Calm,Calm,-,N/A,,Clear,0,2013-01-11 04:35:00
11:55 PM,41.2,37.9,88,30.43,10.0,Calm,Calm,-,N/A,,Clear,0,2013-01-11 04:55:00